Location: Newark
(41.7772°N, 74.7403°W)
Time: 12:24:44
(UTC+00:00)

Transit 4A - Pass Details

Date: 04 June 2020
Orbit: 866 x 978 km, 66.8° (Epoch: 06 July)

Event Time Altitude Azimuth Distance (km) Brightness Sun altitude
Exits shadow 04:29:35 26° 99° (E) 1,649 9.0 -25.4°
Drops below altitude 10° 04:33:52 10° 53° (NE) 2,546 10.5 -25.5°
Sets 04:36:45 0° 41° (NE) 3,505 11.5 -25.6°
